Tracking 25372 objects as of 23-Jan-2022
HD Live streaming from Space Station
objects crossing your sky now

BS-3B (YURI 3B)

Track BS-3B (YURI 3B) now!
BS-3B (YURI 3B) is classified as:


NORAD ID: 21668
Int'l Code: 1991-060A
Perigee: 36,193.8 km
Apogee: 36,233.4 km
Inclination: 13.4 °
Period: 1,457.6 minutes
Semi major axis: 42584 km
RCS: 1.6 m2 (large)
Launch date: August 25, 1991
Source: Japan (JPN)
Launch site: TANEGASHIMA SPACE CENTER (TNSTA)
aabbcc
Your satellite tracking list
Your tracking list is empty




NASA's NSSDC Master Catalog

Two Line Element Set (TLE):
1 21668U 91060A   22022.74942573 -.00000218  00000-0  00000-0 0  9990
2 21668  13.3940   7.1575 0004651  86.5424 259.0271  0.98792601113435
Source of the keplerian elements: AFSPC